Home   Weather   Schärding   Past weeks

Flag for Austria Past Weather in Schärding, Upper Austria, Austria — Yesterday and Last 2 Weeks

Now
16 °F

Cold.


Feels Like: 16 °F
Forecast: 19 / 29 °F
Wind: 1 mph from North

Location: Rohrbach

Current Time: Jan 25, 2017 at 2:42:55 am

Latest Report: Jan 25, 2017 at 1:00 am


Visibility: N/A

Pressure: 30.50 "Hg

Humidity: 89%

Dew Point: 14 °F

Location of SchärdingLocation

Past Weather in Schärding — Graph

°F

Schärding Temperature Yesterday

Maximum temperature yesterday: 18 °F (at 3:00 pm)
Minimum temperature yesterday: 11 °F (at 9:00 am)
Average temperature yesterday: 14 °F

High & Low Weather Summary for the Past Weeks

 TemperatureHumidityPressure
High37 °F (Jan 13, 7:00 am)100% (Jan 13, 1:00 am)30.67 "Hg (Jan 13, 1:00 am)
Low6 °F (Jan 21, 8:00 am)51% (Jan 20, 1:00 pm)29.44 "Hg (Jan 13, 6:00 am)
Average23 °F82%30.25 "Hg
* Reported Jan 10 1:00 am — Jan 25 1:00 am, Schärding, Weather by CustomWeather, © 2017

Note: Actual official high and low records may vary slightly from our data, if they occured in-between our weather recording intervals... More about our weather records

Advertising

Schärding Weather History for the Previous 24 Hours

Scroll right to see more
 ConditionsComfort  
Time TempWeatherWind HumidityBarometerVisibility
1:00 am
Wed, Jan 25
16 °FCold.1 mph89%30.50 "HgN/A
12:00 am17 °FCold.2 mph90%30.49 "HgN/A
11:00 pm
Tue, Jan 24
17 °FCold.2 mph91%30.49 "HgN/A
10:00 pm16 °FCold.1 mph92%30.49 "HgN/A
9:00 pm16 °FCold.1 mph92%30.48 "HgN/A
8:00 pm17 °FCold.1 mph92%30.46 "HgN/A
7:00 pm17 °FCold.1 mph92%30.45 "HgN/A
6:00 pm17 °FCold.1 mph93%30.44 "HgN/A
5:00 pm18 °FCold.1 mph93%30.43 "HgN/A
4:00 pm18 °FCold.1 mph93%30.41 "HgN/A
3:00 pm18 °FCold.1 mph92%30.40 "HgN/A
2:00 pm17 °FCold.1 mph92%30.40 "HgN/A
1:00 pm17 °FCold.1 mph93%30.40 "HgN/A
12:00 pm15 °FCold.1 mph92%30.41 "HgN/A
11:00 am13 °FCold.1 mph92%30.42 "HgN/A
10:00 am12 °FCold.1 mph92%30.42 "HgN/A
9:00 am11 °FCold.1 mph91%30.41 "HgN/A
8:00 am11 °FCold.1 mph91%30.40 "HgN/A
7:00 am11 °FCold.No wind91%30.38 "HgN/A
6:00 am11 °FCold.1 mph91%30.37 "HgN/A
5:00 am11 °FCold.1 mph91%30.37 "HgN/A
4:00 am11 °FCold.No wind92%30.36 "HgN/A
3:00 am12 °FCold.1 mph92%30.35 "HgN/A
2:00 am13 °FCold.1 mph94%30.35 "HgN/A
Weather by CustomWeather, © 2017

See weather overviewHow to use our weather pages